www.pogodaiklimat.ru

Погода и климат >> Архив погоды >> Норвегия >> Маяватн


ПОГОДА в Маяватн

  • Прогноз погоды в Маяватн
  • Монитор погоды в Маяватн

АРХИВ ПОГОДЫ в Маяватн

Время (UTC), дата Ветер
(напр.,м/с)
 
Видим.   Явления Облачность Т
(С)
Тd
(С)
f
(%)
Тe
(С)
Тes
(С)
Комфортность P
(гПа)
Po
(гПа)
Тmin
(С)
Tmax
(С)
R
(мм)
R24
(мм)
S
(см)
04 19.06 В 1
{2}
н/о н/о +8.7 +8.0 95 +8 +8 1009.6 971.5
05 19.06 штиль 0
{2}
н/о н/о +9.7 +8.3 91 +9 +9 1009.7 971.8
06 19.06 штиль 0
{2}
н/о н/о +9.9 +7.0 82 +9 +9 1009.8 972.0 +8.5 +12.2
07 19.06 СЗ 1
{1}
н/о н/о +10.5 +6.7 77 +10 +10 1010.2 972.3
08 19.06 З 1
{2}
н/о н/о +12.8 +6.4 65 +13 +13 1010.2 972.6
09 19.06 З 1
{2}
н/о н/о +12.7 +6.1 64 +13 +13 1010.5 972.9
10 19.06 ЮЗ 1
{2}
н/о н/о +13.0 +6.1 63 +13 +13 1010.8 973.2
11 19.06 Ю 2
{4}
н/о н/о +13.1 +7.8 70 +12 +12 1011.2 973.6
12 19.06 З 1
{4}
н/о н/о +14.7 +5.5 54 +15 +15 1011.1 973.8
13 19.06 З 1
{2}
н/о н/о +14.7 +6.0 56 +15 +15 1011.4 974.0
14 19.06 ЮЗ 2
{4}
н/о н/о +16.0 +6.7 54 +16 +16 1011.3 974.1
15 19.06 З 2
{4}
н/о н/о +15.1 +5.9 54 +15 +15 1011.2 973.9
16 19.06 З 1
{4}
н/о н/о +15.4 +6.9 57 +16 +16 1011.2 974.0
17 19.06 С 1
{4}
н/о н/о +15.2 +6.0 54 +16 +16 1011.2 973.9
18 19.06 С 1
{4}
н/о н/о +14.7 +5.8 55 +15 +15 1011.2 973.8 +9.9 +17.0
19 19.06 С 1
{3}
н/о н/о +14.0 +5.6 57 +15 +15 1011.2 973.8
20 19.06 С 1
{2}
н/о н/о +11.6 +6.1 69 +12 +12 1011.6 973.8
21 19.06 В 1
{2}
н/о н/о +9.9 +6.8 81 +9 +9 1011.9 973.9
22 19.06 СВ 1
{2}
н/о н/о +8.1 +6.4 89 +7 +7 1012.1 973.9
23 19.06 СВ 1
{2}
н/о н/о +6.9 +5.5 91 +6 +6 1012.4 974.0
00 20.06 Ю 1
{3}
н/о н/о +6.5 +5.6 94 +5 +5 1012.0 973.5
01 20.06 СВ 1
{2}
н/о н/о +7.0 +5.8 92 +6 +6 1011.5 973.1
02 20.06 Ю 1
{2}
н/о н/о +7.9 +6.5 91 +7 +7 1011.0 972.8
03 20.06 ЮЗ 1
{3}
н/о н/о +9.2 +6.8 85 +9 +9 1010.4 972.4
04 20.06 В 1
{2}
н/о н/о +9.1 +6.7 85 +8 +8 1009.7 971.7
05 20.06 ЮЗ 1
{2}
н/о н/о +10.4 +7.6 83 +10 +10 1008.8 971.0
06 20.06 ЮЗ 2
{4}
н/о н/о +12.9 +7.2 68 +12 +12 1008.0 970.5 +6.3 +14.7
07 20.06 СЗ 2
{7}
н/о н/о +12.2 +8.3 77 +11 +11 1007.2 969.7
08 20.06 СЗ 2
{11}
н/о н/о +12.3 +8.4 77 +11 +11 1006.6 969.1
09 20.06 ЮВ 2
{10}
н/о н/о +12.6 +7.9 73 +12 +12 1005.7 968.3
10 20.06 ЮВ 4
{14}
н/о н/о +12.7 +7.6 71 +11 +11 1004.6 967.2
11 20.06 СЗ 2
{9}
н/о н/о +12.0 +8.5 79 +11 +11 1004.8 967.3
12 20.06 С 2
{14}
н/о н/о +11.8 +8.7 81 +11 +11 1004.7 967.2
13 20.06 С 2
{5}
н/о н/о +12.2 +9.4 83 +11 +11 1004.4 967.0
14 20.06 СВ 1
{3}
н/о н/о +12.9 +9.7 81 +13 +13 1004.0 966.7
15 20.06 СЗ 1
{4}
н/о н/о +13.4 +10.0 80 +14 +14 1003.5 966.3
16 20.06 З 1
{4}
н/о н/о +13.8 +10.6 81 +14 +14 1003.2 966.1
17 20.06 С 2
{3}
н/о н/о +14.4 +10.0 75 +14 +14 1002.8 965.7
18 20.06
{5}
н/о н/о +14.3 +10.7 79 1002.8 965.7 +11.6 +15.1
19 20.06 С 1
{3}
н/о н/о +14.0 +10.6 80 +14 +14 1002.5 965.4
20 20.06 штиль 0
{2}
н/о н/о +13.3 +10.5 83 +13 +13 1002.5 965.3
21 20.06 В 1
{1}
н/о н/о +12.5 +10.4 87 +12 +12 1002.5 965.2
22 20.06 штиль 0
{1}
н/о н/о +11.7 +10.5 92 +11 +11 1002.4 965.0
23 20.06 штиль 0
{1}
н/о н/о +11.7 +10.6 93 +11 +11 1002.3 964.9
00 21.06 штиль 0
{3}
н/о н/о +11.6 +10.5 93 +11 +11 1002.3 964.9
01 21.06 З 1
{1}
н/о н/о +11.5 +10.7 95 +11 +11 1002.4 965.0
02 21.06 СВ 1
{2}
н/о н/о +11.5 +10.9 96 +11 +11 1002.5 965.1
03 21.06 ЮЗ 1
{2}
н/о н/о +11.5 +10.9 96 +11 +11 1003.0 965.5
04 21.06 З 2
{4}
н/о н/о +10.9 +9.3 90 +10 +10 1003.2 965.7
05 21.06 С 1
{5}
н/о н/о +10.9 +9.8 93 +10 +10 1003.5 965.9
06 21.06 С 1
{5}
н/о н/о +11.0 +9.6 91 +11 +11 1003.7 966.1 +10.7 +14.6
07 21.06 СЗ 1
{3}
н/о н/о +11.5 +9.4 87 +11 +11 1003.9 966.4
08 21.06 СЗ 1
{3}
н/о н/о +11.1 +9.5 90 +11 +11 1004.5 966.9
09 21.06 З 2
{5}
н/о н/о +10.8 +8.7 87 +9 +9 1005.0 967.4
10 21.06 СЗ 1
{6}
н/о н/о +10.8 +8.6 86 +10 +10 1005.5 967.9
11 21.06 З 1
{5}
н/о н/о +10.5 +8.3 86 +10 +10 1006.1 968.4
12 21.06 СЗ 1
{6}
н/о н/о +10.4 +8.5 88 +10 +10 1006.5 968.9
13 21.06 З 2
{5}
н/о н/о +10.2 +7.6 84 +9 +9 1007.1 969.3
14 21.06 С 1
{4}
н/о н/о +10.5 +7.2 80 +10 +10 1007.1 969.4
15 21.06 С 1
{4}
н/о н/о +10.3 +8.4 88 +10 +10 1007.4 969.6
16 21.06 СЗ 1
{5}
н/о н/о +10.0 +7.1 82 +10 +10 1007.7 969.9
17 21.06 СЗ 1
{5}
н/о н/о +11.1 +6.5 73 +11 +11 1007.5 969.8
18 21.06 З 1
{5}
н/о н/о +10.7 +5.5 70 +11 +11 1007.6 969.9 +9.6 +11.7
19 21.06 З 2
{5}
н/о н/о +10.1 +5.5 73 +9 +9 1007.8 970.0
20 21.06 З 1
{3}
н/о н/о +9.8 +5.4 74 +9 +9 1008.2 970.3
21 21.06 С 1
{3}
н/о н/о +9.0 +5.6 79 +8 +8 1008.4 970.4
22 21.06 ЮВ 1
{2}
н/о н/о +7.8 +5.9 88 +7 +7 1008.5 970.4
23 21.06 В 1
{1}
н/о н/о +7.1 +5.9 92 +6 +6 1008.9 970.6
00 22.06 СЗ 1
{5}
н/о н/о +7.8 +6.1 89 +7 +7 1008.9 970.7
01 22.06 С 1
{3}
н/о н/о +8.5 +6.0 84 +8 +8 1008.8 970.7
02 22.06 З 2
{7}
н/о н/о +9.0 +5.0 76 +7 +7 1008.9 970.9
03 22.06 З 2
{5}
н/о н/о +8.8 +4.6 75 +7 +7 1009.1 971.1
04 22.06 З 2
{6}
н/о н/о +8.8 +4.8 76 +7 +7 1008.9 970.9
05 22.06 З 2
{7}
н/о н/о +8.8 +4.4 74 +7 +7 1009.1 971.1
06 22.06 н/о
07 22.06 З 2
{6}
н/о н/о +8.7 +5.3 79 +7 +7 1009.6 971.5
08 22.06 З 3
{7}
н/о н/о +9.6 +5.6 76 +7 +7 1010.0 972.0
09 22.06 З 3
{7}
н/о н/о +9.6 +6.2 79 +7 +7 1010.5 972.5
10 22.06 З 4
{8}
н/о н/о +10.6 +6.0 73 +8 +8 1011.2 973.3
11 22.06 З 3
{10}
н/о н/о +9.8 +6.5 80 +8 +8 1011.9 973.9
12 22.06 З 3
{10}
н/о н/о +9.6 +6.5 81 +7 +7 1012.8 974.7
13 22.06 З 5
{10}
н/о н/о +8.3 +5.1 80 +5 +5 1014.0 975.7
14 22.06 З 3
{8}
н/о н/о +8.6 +5.0 78 +6 +6 1014.3 975.9
15 22.06 ЮЗ 3
{11}
н/о н/о +8.0 +4.4 78 +5 +5 1014.8 976.4
16 22.06 З 3
{9}
н/о н/о +9.5 +6.1 79 +7 +7 1015.0 976.8
17 22.06 З 3
{7}
н/о н/о +9.9 +4.3 68 +8 +8 1014.8 976.7
18 22.06 З 3
{11}
н/о н/о +10.3 +4.9 69 +8 +8 1014.8 976.7 +7.2 +11.6
19 22.06 З 3
{8}
н/о н/о +8.7 +4.9 77 +6 +6 1015.3 977.0
20 22.06 ЮЗ 3
{7}
н/о н/о +8.3 +4.7 78 +6 +6 1015.5 977.1
21 22.06 н/о
22 22.06 ЮЗ 3
{8}
н/о н/о +7.9 +3.8 75 +5 +5 1016.4 978.0
23 22.06 ЮЗ 2
{6}
н/о н/о +7.4 +4.5 82 +5 +5 1017.0 978.6
00 23.06 ЮЗ 2
{9}
н/о н/о +7.0 +3.8 80 +5 +5 1017.4 978.8
01 23.06 ЮЗ 1
{4}
н/о н/о +6.7 +4.4 85 +6 +6 1017.6 979.0
02 23.06 ЮЗ 2
{5}
н/о н/о +7.1 +5.6 90 +5 +5 1017.5 978.9
03 23.06 ЮЗ 2
{5}
н/о н/о +7.2 +5.7 90 +5 +5 1017.6 979.0
04 23.06 ЮЗ 3
{7}
н/о н/о +7.4 +6.0 91 +4 +4 1017.3 978.8
05 23.06 Ю 3
{8}
н/о н/о +7.2 +5.8 91 +4 +4 1017.7 979.1
06 23.06 Ю 4
{8}
н/о н/о +7.3 +5.9 91 +4 +4 1018.0 979.4 +6.2 +10.3
07 23.06 Ю 3
{7}
н/о н/о +7.7 +5.8 88 +5 +5 1018.2 979.7
08 23.06 Ю 4
{7}
н/о н/о +8.6 +6.2 85 +5 +5 1018.3 979.9
09 23.06 ЮЗ 3
{7}
н/о н/о +8.6 +7.1 90 +6 +6 1019.1 980.7
10 23.06 З 4
{8}
н/о н/о +8.9 +5.3 78 +6 +6 1019.9 981.5
11 23.06 ЮЗ 2
{7}
н/о н/о +9.1 +5.5 78 +7 +7 1020.3 982.0
12 23.06 ЮЗ 3
{8}
н/о н/о +9.2 +5.6 78 +7 +7 1020.7 982.3
13 23.06 ЮЗ 2
{7}
н/о н/о +9.3 +5.1 75 +8 +8 1021.2 982.8
14 23.06 ЮЗ 3
{7}
н/о н/о +10.1 +5.7 74 +8 +8 1021.3 983.0
15 23.06 ЮЗ 2
{6}
н/о н/о +9.1 +6.0 81 +7 +7 1022.0 983.5
16 23.06 ЮЗ 3
{7}
н/о н/о +9.1 +6.2 82 +7 +7 1022.2 983.7
17 23.06 ЮЗ 3
{7}
н/о н/о +8.4 +5.0 79 +6 +6 1022.7 984.1
18 23.06 Ю 2
{7}
н/о н/о +8.0 +5.5 84 +6 +6 1022.8 984.2 +7.3 +11.2
19 23.06 Ю 2
{6}
н/о н/о +8.1 +5.2 82 +6 +6 1023.3 984.6
20 23.06 Ю 2
{6}
н/о н/о +8.0 +5.6 85 +6 +6 1023.7 985.0
21 23.06 ЮЗ 3
{6}
н/о н/о +7.8 +6.1 89 +5 +5 1024.8 986.0
22 23.06 Ю 2
{4}
н/о н/о +7.9 +5.9 87 +6 +6 1025.2 986.5
23 23.06 Ю 1
{6}
н/о н/о +7.2 +5.8 91 +6 +6 1026.1 987.3
00 24.06 З 2
{6}
н/о н/о +7.3 +5.6 89 +5 +5 1027.0 988.1
01 24.06 ЮВ 1
{6}
н/о н/о +6.6 +4.8 88 +6 +6 1027.4 988.4
02 24.06 З 2
{6}
н/о н/о +7.4 +4.0 79 +5 +5 1027.8 988.9
03 24.06 Ю 2
{4}
н/о н/о +7.2 +4.0 80 +5 +5 1028.1 989.1
04 24.06 З 1
{5}
н/о н/о +7.7 +4.5 80 +7 +7 1028.5 989.6
05 24.06 З 2
{4}
н/о н/о +8.0 +4.4 78 +6 +6 1028.9 989.9
06 24.06 З 1
{6}
н/о н/о +8.6 +4.0 73 +8 +8 1029.0 990.2 +6.6 +8.9
07 24.06 Ю 2
{4}
н/о н/о +7.9 +5.4 84 +6 +6 1029.7 990.7
08 24.06 Ю 2
{4}
н/о н/о +8.6 +6.1 84 +7 +7 1029.8 991.0
09 24.06 Ю 3
{5}
н/о н/о +8.8 +6.4 85 +6 +6 1030.1 991.3
10 24.06 З 2
{6}
н/о н/о +8.9 +4.7 75 +7 +7 1030.5 991.8
11 24.06 З 2
{6}
н/о н/о +9.5 +4.7 72 +8 +8 1030.8 992.0
12 24.06 З 3
{6}
н/о н/о +10.0 +4.4 68 +8 +8 1030.7 992.0
13 24.06 З 2
{6}
н/о н/о +10.2 +4.4 67 +9 +9 1030.9 992.2
14 24.06 З 2
{6}
н/о н/о +9.9 +4.1 67 +9 +9 1031.1 992.4
15 24.06 З 2
{5}
н/о н/о +10.2 +3.9 65 +9 +9 1030.9 992.2
16 24.06 З 2
{5}
н/о н/о +10.3 +4.0 65 +9 +9 1030.5 991.9
17 24.06 СЗ 1
{5}
н/о н/о +10.3 +3.1 61 +10 +10 1030.1 991.5
18 24.06 З 1
{6}
н/о н/о +10.7 +3.7 62 +11 +11 1029.9 991.4 +7.9 +11.3
19 24.06 З 1
{3}
н/о н/о +10.0 +3.3 63 +10 +10 1029.9 991.2
20 24.06
{3}
н/о н/о +8.4 +3.1 69 1030.1 991.2
21 24.06 штиль 0
{1}
н/о н/о +6.4 +4.1 85 +5 +5 1030.3 991.1
22 24.06 СВ 1
{2}
н/о н/о +3.9 +2.7 92 +2 +2 1030.9 991.4
23 24.06 СВ 1
{2}
н/о н/о +3.2 +2.5 95 +2 +2 1031.0 991.4
00 25.06 СВ 1
{3}
н/о н/о +2.0 +1.3 95 0 0 1030.7 990.9
01 25.06 СВ 1
{2}
н/о н/о +0.8 +0.2 96 -1 -1 1030.6 990.6
02 25.06 СВ 1
{3}
н/о н/о +1.0 +0.4 96 -1 -1 1030.7 990.8
03 25.06 СВ 1
{3}
н/о н/о +2.8 +2.2 96 +1 +1 1029.9 990.3
04 25.06 штиль 0
{1}
н/о н/о +5.9 +4.6 91 +5 +5 1029.4 990.2
05 25.06 штиль 0
{1}
н/о н/о +8.2 +4.4 77 +8 +8 1028.6 989.7
06 25.06 З 1
{3}
н/о н/о +10.0 +5.0 71 +10 +10 1028.3 989.7 +0.8 +10.8 153
07 25.06 З 1
{2}
н/о н/о +11.3 +2.9 56 +11 +11 1027.7 989.3
08 25.06 З 1
{2}
н/о н/о +13.4 +5.1 57 +14 +14 1026.9 988.8
09 25.06 З 2
{3}
н/о н/о +13.6 +4.0 52 +13 +13 1026.5 988.4
10 25.06 З 2
{2}
н/о н/о +15.1 +2.3 42 +15 +15 1025.8 988.0
11 25.06 З 2
{3}
н/о н/о +15.9 +1.6 38 +16 +16 1025.0 987.3
12 25.06 З 2
{3}
н/о н/о +17.0 +1.1 34 +17 +17 1024.6 987.0
13 25.06 н/о
14 25.06 З 2
{3}
н/о н/о +18.9 +1.4 31 +20 +20 1022.8 985.5
15 25.06 З 2
{4}
н/о н/о +19.4 +1.4 30 +20 +20 1021.9 984.7
16 25.06 СЗ 1
{3}
н/о н/о +19.6 +2.5 32 +21 +21 комфорт 1021.3 984.2
17 25.06 СЗ 2
{4}
н/о н/о +19.4 +4.0 36 +20 +20 1020.9 983.8
18 25.06 З 2
{4}
н/о н/о +16.7 +5.7 48 +17 +17 1021.2 983.7 +9.7 +20.0
19 25.06 С 1
{4}
н/о н/о +15.1 +5.6 53 +16 +16 1021.2 983.5
20 25.06 СЗ 1
{3}
н/о н/о +13.5 +5.7 59 +14 +14 1021.3 983.4
21 25.06 СВ 1
{3}
н/о н/о +11.0 +6.0 71 +11 +11 1021.5 983.3
22 25.06 В 1
{2}
н/о н/о +8.7 +5.8 82 +8 +8 1021.7 983.2
23 25.06 штиль 0
{2}
н/о н/о +6.5 +4.8 89 +6 +6 1022.0 983.2
00 26.06 СВ 1
{4}
н/о н/о +5.4 +4.2 92 +4 +4 1022.0 983.1
01 26.06 В 1
{2}
н/о н/о +4.3 +3.4 94 +3 +3 1022.2 983.1
02 26.06 СВ 1
{2}
н/о н/о +4.2 +3.5 95 +3 +3 1022.1 983.0
03 26.06 штиль 0
{1}
н/о н/о +5.7 +5.1 96 +5 +5 1021.7 982.8

 

Местоположение метеостанции Маяватн (Норвегия): широта 65.17 долгота 13.37 высота над уровнем моря 319 м.

В архиве по умолчанию представлена погода в Маяватн за последнюю неделю. Архивные данные за месяц целиком и за предыдущие месяцы, начиная с января 2011 года, Вы можете получить, выбрав интересующий диапазон дат из раскрывающегося списка и нажав кнопку "Ввод!".


*Определитесь, кто Вы:
робот инопланетянин человек

Внимание! Время в таблицах - всемирное. Для получения местного времени необходимо прибавить поправку, которая равна 1 ч.

Смотрите также архив погоды в соседних городах и на ближайших метеорологических станциях:

Погода в Лаксфорсе (Норвегия) (50 км)
Погода в Намсскугане (Норвегия) (54 км)
Погода в Стекенйокке (Швеция) (54 км)
Погода в Брённёйсунн аэропорту (Норвегия) (62 км)
Погода на Сомна-Квалёйа (Норвегия) (65 км)
Погода в Мосьен аэропорту (Норвегия) (68 км)
Погода в Гиеласе (Швеция) (81 км)
Погода в Аддеде (Швеция) (85 км)
Погода в Гартлэнде (Норвегия) (85 км)
Погода в Хьётте (Норвегия) (85 км)

Пояснения к столбцам:

Ветер - указаны скорость ветра в м/с - средняя за 10 мин, порывы в срок и между сроками (в фигурных скобках) и направление, откуда дует ветер: С - северный, СВ - северо-восточный, В - восточный, ЮВ - юго-восточный, Ю - южный, ЮЗ - юго-западный, З - западный, СЗ - северо-западный.
Видимость - горизонтальная дальность видимости в метрах или километрах. При видимости от 1 до 10 км при отсутствии осадков обычно наблюдается дымка, при ухудшении видимости до 1 км и менее - туман. В сухую погоду видимость может ухудшаться дымом, пылью или мглою.
Явления - указаны атмосферные явления, наблюдавшиеся в срок или в последний час перед сроком; фигурными скобками обозначены явления, наблюдавшиеся между сроками (за 1-3 часа до срока); квадратными скобками обозначены град или гололедные отложения с указанием их диаметра в мм.
Облачность - указаны через наклонную черту общая и нижняя облачность в баллах и высота нижней границы облаков в метрах; квадратными скобками обозначены формы облаков: Ci - перистые, Cs - перисто-слоистые, Cc - перисто-кучевые, Ac - высококучевые, As - высокослоистые, Sc - слоисто-кучевые, Ns - слоисто-дождевые, Cu - кучевые, Cb - кучево-дождевые. Подробнее классификацию облаков см. в Атласе облаков (PDF).
T - Температура воздуха - температура, измеренная на высоте 2 м над землей.
Td - Температура точки росы - температура, при понижении до которой содержащийся в воздухе водяной пар достигнет насыщения.
f - Относительная влажность воздуха - влажноcть воздуха, измеренная на высоте 2 м над землей.
Te - Эффективная температура - температура, которую ощущает одетый по сезону человек в тени. Характеристика душности погоды. При расчете учитывается влияние влажности воздуха и скорости ветра на теплоощущения человека.
Tes - Эффективная температура на солнце - температура, которую ощущает человек, с поправкой на солнечный нагрев. Характеристика знойности погоды. Зависит от высоты солнца над горизонтом, облачности и скорости ветра. Ночью, в пасмурную погоду, а также при ветре 12 м/с и более поправка равна нулю.
P - Атмосферное давление - приведенное к уровню моря атмосферное давление.
Po - Атмосферное давление - измеренное на уровне метеостанции атмосферное давление.
Tmin - Минимальная температура - минимум температуры воздуха на высоте 2 м над землей.
Tmax - Максимальная температура - максимум температуры воздуха на высоте 2 м над землей.
R - Количество осадков - Количество выпавших осадков за период времени, мм. При наведении курсора мыши на число - период времени, за который выпало указанное количество осадков.
R24 - Количество осадков - Количество выпавших осадков за 24 часа, мм.
S - Снежный покров - Высота снежного покрова, см. При наведении курсора мыши на число - состояние снежного покрова и степень покрытия местности в баллах.